QPF
0.01 0.01 0.00 0.00 0.00 0.00 0.01 0.01 0.02 0.01 0.00 0.00 0.00 0.00 0.00 0.00 0.00 0.00 0.00 0.00 0.00 0.00 0.01 0.01 0.02 0.01 0.01 0.00 0.00 0.00 0.00 0.00 0.00 0.00 0.00 0.00 0.00 0.00 0.00 0.00 0.00 0.00 0.00 0.00
0.01 0.00 0.00 0.00 0.00 0.00 0.00 0.00 0.00 0.00 0.00 0.00 0.00 0.00 0.00 0.00 0.00 0.00 0.00 0.00 0.00 0.00 0.01 0.01 0.01 0.02 0.02 0.01 0.01 0.00 0.00 0.00 0.00 0.00 0.00 0.00 0.00 0.00 0.00 0.00 0.00 0.00 0.00 0.00
0.02 0.01 0.01 0.00 0.00 0.00 0.00 0.00 0.00 0.00 0.00 0.00 0.00 0.00 0.00 0.00 0.00 0.00 0.00 0.01 0.01 0.01 0.01 0.01 0.01 0.01 0.02 0.02 0.01 0.00 0.00 0.00 0.00 0.00 0.00 0.00 0.00 0.00 0.00 0.00 0.00 0.00 0.00 0.00
0.02 0.02 0.02 0.01 0.00 0.00 0.00 0.00 0.00 0.00 0.00 0.00 0.00 0.00 0.01 0.01 0.00 0.00 0.00 0.01 0.01 0.01 0.01 0.01 0.03 0.03 0.03 0.02 0.01 0.00 0.00 0.00 0.00 0.00 0.00 0.00 0.00 0.00 0.00 0.00 0.00 0.00 0.00 0.00
0.03 0.03 0.02 0.00 0.00 0.00 0.00 0.00 0.00 0.00 0.00 0.00 0.00 0.00 0.00 0.00 0.00 0.00 0.00 0.00 0.01 0.02 0.02 0.02 0.03 0.04 0.04 0.03 0.01 0.00 0.00 0.00 0.00 0.00 0.00 0.00 0.00 0.00 0.00 0.00 0.00 0.00 0.00 0.00
0.04 0.04 0.02 0.01 0.00 0.00 0.00 0.01 0.00 0.00 0.00 0.00 0.00 0.00 0.00 0.00 0.00 0.00 0.01 0.01 0.01 0.01 0.01 0.01 0.02 0.03 0.04 0.03 0.01 0.00 0.00 0.01 0.01 0.00 0.01 0.00 0.00 0.00 0.01 0.01 0.00 0.00 0.00 0.00
0.04 0.05 0.02 0.00 0.00 0.00 0.01 0.01 0.00 0.00 0.00 0.00 0.00 0.00 0.00 0.00 0.00 0.00 0.00 0.00 0.00 0.00 0.01 0.01 0.01 0.01 0.03 0.03 0.01 0.00 0.01 0.01 0.01 0.01 0.01 0.01 0.00 0.00 0.00 0.01 0.01 0.01 0.01 0.00
0.03 0.04 0.03 0.01 0.00 0.00 0.00 0.00 0.00 0.00 0.00 0.00 0.00 0.00 0.00 0.00 0.00 0.00 0.00 0.00 0.00 0.00 0.00 0.01 0.01 0.01 0.02 0.02 0.01 0.01 0.00 0.01 0.02 0.02 0.02 0.01 0.01 0.01 0.01 0.01 0.01 0.01 0.01 0.01
0.01 0.01 0.01 0.00 0.00 0.00 0.00 0.00 0.00 0.00 0.00 0.00 0.00 0.00 0.00 0.00 0.00 0.00 0.00 0.00 0.00 0.00 0.00 0.00 0.00 0.01 0.01 0.02 0.01 0.01 0.01 0.01 0.02 0.02 0.02 0.02 0.01 0.01 0.01 0.02 0.01 0.01 0.01 0.01
0.01 0.00 0.00 0.00 0.00 0.00 0.00 0.00 0.00 0.00 0.00 0.00 0.00 0.00 0.00 0.00 0.00 0.00 0.00 0.00 0.00 0.00 0.00 0.00 0.01 0.01 0.02 0.02 0.02 0.02 0.02 0.02 0.02 0.02 0.01 0.01 0.01 0.01 0.01 0.01 0.00 0.00 0.00 0.00
0.01 0.01 0.00 0.00 0.00 0.00 0.00 0.00 0.00 0.00 0.00 0.00 0.00 0.00 0.00 0.00 0.00 0.00 0.00 0.00 0.00 0.00 0.00 0.00 0.00 0.01 0.01 0.02 0.02 0.03 0.02 0.02 0.01 0.01 0.01 0.01 0.01 0.01 0.01 0.00 0.00 0.00 0.00 0.00
0.01 0.00 0.00 0.00 0.00 0.00 0.00 0.00 0.00 0.00 0.00 0.00 0.00 0.00 0.00 0.00 0.00 0.00 0.00 0.00 0.01 0.01 0.01 0.01 0.01 0.01 0.01 0.01 0.01 0.03 0.03 0.02 0.01 0.01 0.00 0.00 0.00 0.01 0.01 0.01 0.00 0.00 0.00 0.00
0.01 0.00 0.00 0.00 0.00 0.00 0.00 0.00 0.00 0.00 0.00 0.00 0.00 0.00 0.00 0.00 0.00 0.01 0.01 0.00 0.01 0.02 0.01 0.01 0.01 0.01 0.01 0.01 0.01 0.01 0.02 0.01 0.01 0.00 0.00 0.00 0.00 0.01 0.00 0.00 0.01 0.01 0.00 0.00
0.00 0.00 0.00 0.00 0.00 0.00 0.00 0.00 0.00 0.00 0.00 0.00 0.00 0.00 0.00 0.00 0.00 0.00 0.01 0.01 0.01 0.01 0.01 0.01 0.01 0.01 0.01 0.01 0.01 0.01 0.01 0.02 0.02 0.01 0.01 0.00 0.00 0.00 0.00 0.00 0.00 0.00 0.00 0.01
0.01 0.00 0.00 0.00 0.00 0.00 0.00 0.00 0.00 0.00 0.00 0.00 0.00 0.00 0.00 0.00 0.00 0.00 0.01 0.00 0.00 0.01 0.01 0.02 0.02 0.01 0.01 0.00 0.01 0.01 0.01 0.01 0.02 0.02 0.03 0.02 0.01 0.01 0.01 0.01 0.00 0.00 0.00 0.00
0.01 0.01 0.00 0.00 0.00 0.00 0.00 0.00 0.00 0.00 0.00 0.00 0.00 0.00 0.01 0.00 0.00 0.00 0.00 0.00 0.00 0.00 0.01 0.03 0.03 0.01 0.01 0.01 0.01 0.01 0.01 0.00 0.00 0.01 0.02 0.03 0.03 0.02 0.01 0.01 0.01 0.00 0.00 0.00
0.01 0.01 0.00 0.00 0.00 0.00 0.00 0.00 0.00 0.00 0.00 0.00 0.00 0.00 0.00 0.00 0.00 0.00 0.00 0.00 0.00 0.00 0.00 0.01 0.02 0.01 0.01 0.01 0.01 0.01 0.00 0.00 0.00 0.00 0.00 0.01 0.02 0.03 0.02 0.02 0.02 0.01 0.01 0.01
0.01 0.01 0.00 0.00 0.00 0.00 0.00 0.00 0.00 0.00 0.00 0.00 0.00 0.00 0.00 0.00 0.00 0.01 0.01 0.00 0.00 0.00 0.00 0.00 0.01 0.01 0.00 0.00 0.00 0.00 0.00 0.00 0.00 0.00 0.00 0.00 0.00 0.01 0.01 0.01 0.01 0.01 0.01 0.01
0.00 0.00 0.00 0.00 0.00 0.00 0.00 0.00 0.00 0.00 0.00 0.00 0.00 0.00 0.00 0.00 0.00 0.01 0.01 0.01 0.01 0.00 0.00 0.00 0.00 0.00 0.00 0.00 0.00 0.00 0.00 0.00 0.00 0.00 0.00 0.00 0.00 0.00 0.00 0.00 0.01 0.01 0.01 0.01
0.00 0.00 0.00 0.00 0.00 0.00 0.00 0.00 0.00 0.00 0.00 0.00 0.00 0.00 0.00 0.00 0.00 0.00 0.00 0.00 0.01 0.01 0.01 0.01 0.00 0.00 0.00 0.00 0.00 0.00 0.00 0.00 0.00 0.00 0.00 0.00 0.00 0.00 0.00 0.00 0.00 0.00 0.00 0.00
0.00 0.00 0.00 0.00 0.00 0.00 0.00 0.00 0.00 0.00 0.00 0.00 0.00 0.00 0.00 0.00 0.00 0.00 0.00 0.00 0.00 0.00 0.01 0.01 0.00 0.00 0.00 0.00 0.00 0.00 0.00 0.00 0.00 0.00 0.00 0.00 0.00 0.00 0.00 0.00 0.00 0.00 0.00 0.00
0.00 0.00 0.00 0.00 0.00 0.00 0.00 0.01 0.00 0.00 0.00 0.00 0.00 0.00 0.00 0.00 0.00 0.00 0.00 0.00 0.00 0.00 0.00 0.00 0.00 0.00 0.00 0.00 0.00 0.00 0.00 0.00 0.00 0.00 0.00 0.00 0.00 0.00 0.00 0.00 0.00 0.00 0.00 0.00
0.00 0.00 0.00 0.00 0.00 0.00 0.00 0.00 0.00 0.00 0.00 0.00 0.00 0.00 0.00 0.00 0.00 0.00 0.00 0.00 0.00 0.00 0.00 0.00 0.00 0.00 0.00 0.00 0.00 0.00 0.01 0.00 0.00 0.00 0.00 0.00 0.01 0.01 0.01 0.01 0.01 0.01 0.01 0.01
0.00 0.00 0.00 0.00 0.00 0.00 0.00 0.00 0.00 0.00 0.00 0.00 0.00 0.00 0.00 0.00 0.00 0.00 0.00 0.00 0.00 0.00 0.00 0.00 0.00 0.00 0.00 0.00 0.00 0.00 0.00 0.00 0.00 0.00 0.00 0.00 0.00 0.01 0.01 0.01 0.01 0.01 0.01 0.01
0.01 0.00 0.00 0.00 0.00 0.00 0.00 0.00 0.00 0.00 0.00 0.00 0.00 0.00 0.00 0.00 0.00 0.00 0.00 0.00 0.00 0.00 0.00 0.00 0.00 0.00 0.00 0.00 0.00 0.00 0.00 0.00 0.00 0.00 0.01 0.01 0.00 0.00 0.01 0.01 0.01 0.01 0.01 0.01
0.01 0.01 0.01 0.00 0.00 0.00 0.00 0.00 0.00 0.00 0.00 0.00 0.00 0.00 0.00 0.00 0.00 0.00 0.00 0.00 0.00 0.00 0.00 0.00 0.00 0.00 0.00 0.00 0.00 0.00 0.00 0.00 0.00 0.00 0.00 0.00 0.00 0.00 0.00 0.01 0.01 0.01 0.01 0.01
0.01 0.01 0.01 0.01 0.00 0.00 0.00 0.00 0.00 0.00 0.00 0.00 0.00 0.00 0.00 0.00 0.00 0.00 0.00 0.00 0.00 0.00 0.00 0.00 0.00 0.00 0.00 0.00 0.00 0.00 0.00 0.00 0.00 0.00 0.00 0.00 0.00 0.00 0.00 0.01 0.01 0.01 0.01 0.01
MSLP
1014.06 1014.49 1014.87 1015.16 1015.30 1015.27 1015.03 1014.59 1013.97 1013.21 1012.38 1011.56 1010.82 1010.25 1009.87 1009.71 1009.77 1010.01 1010.37 1010.82 1011.30 1011.76 1012.19 1012.59 1012.97 1013.36 1013.77 1014.22 1014.71 1015.23 1015.74 1016.24 1016.67 1017.04 1017.33 1017.56 1017.73 1017.88 1018.04 1018.23 1018.46 1018.74 1019.04 1019.35
1013.89 1014.23 1014.48 1014.61 1014.60 1014.41 1014.06 1013.55 1012.92 1012.21 1011.48 1010.78 1010.19 1009.73 1009.45 1009.36 1009.43 1009.65 1009.97 1010.36 1010.79 1011.22 1011.64 1012.07 1012.51 1012.96 1013.45 1013.97 1014.51 1015.07 1015.62 1016.13 1016.58 1016.97 1017.28 1017.54 1017.77 1017.98 1018.19 1018.44 1018.71 1019.01 1019.33 1019.63
1013.69 1013.93 1014.05 1014.03 1013.85 1013.51 1013.04 1012.46 1011.82 1011.14 1010.49 1009.91 1009.44 1009.10 1008.91 1008.87 1008.96 1009.17 1009.45 1009.80 1010.19 1010.60 1011.03 1011.48 1011.97 1012.49 1013.04 1013.63 1014.23 1014.83 1015.41 1015.94 1016.42 1016.83 1017.18 1017.49 1017.76 1018.03 1018.31 1018.60 1018.91 1019.23 1019.54 1019.84
1013.46 1013.60 1013.59 1013.42 1013.09 1012.63 1012.06 1011.43 1010.77 1010.13 1009.56 1009.07 1008.71 1008.47 1008.35 1008.36 1008.47 1008.66 1008.92 1009.23 1009.58 1009.97 1010.40 1010.87 1011.39 1011.96 1012.57 1013.21 1013.86 1014.49 1015.09 1015.65 1016.15 1016.59 1016.97 1017.32 1017.65 1017.97 1018.30 1018.63 1018.97 1019.30 1019.61 1019.88
1013.17 1013.21 1013.08 1012.80 1012.36 1011.80 1011.17 1010.51 1009.86 1009.27 1008.77 1008.38 1008.10 1007.95 1007.90 1007.95 1008.07 1008.24 1008.47 1008.74 1009.05 1009.42 1009.83 1010.31 1010.84 1011.43 1012.07 1012.73 1013.40 1014.05 1014.67 1015.23 1015.75 1016.21 1016.63 1017.01 1017.38 1017.75 1018.12 1018.48 1018.84 1019.17 1019.47 1019.73
1012.81 1012.74 1012.52 1012.15 1011.65 1011.05 1010.40 1009.75 1009.15 1008.63 1008.21 1007.91 1007.73 1007.65 1007.66 1007.74 1007.86 1008.02 1008.21 1008.43 1008.70 1009.02 1009.40 1009.85 1010.37 1010.95 1011.58 1012.24 1012.90 1013.54 1014.15 1014.72 1015.23 1015.70 1016.14 1016.55 1016.96 1017.36 1017.75 1018.14 1018.51 1018.85 1019.14 1019.39
1012.36 1012.21 1011.91 1011.49 1010.96 1010.37 1009.75 1009.17 1008.65 1008.22 1007.91 1007.71 1007.63 1007.62 1007.68 1007.78 1007.90 1008.04 1008.19 1008.36 1008.57 1008.83 1009.16 1009.56 1010.03 1010.57 1011.16 1011.78 1012.40 1013.01 1013.60 1014.14 1014.65 1015.12 1015.56 1015.99 1016.41 1016.83 1017.25 1017.65 1018.03 1018.38 1018.68 1018.93
1011.86 1011.62 1011.27 1010.82 1010.31 1009.77 1009.23 1008.75 1008.34 1008.04 1007.85 1007.76 1007.77 1007.84 1007.94 1008.07 1008.19 1008.30 1008.41 1008.53 1008.68 1008.87 1009.12 1009.45 1009.85 1010.32 1010.84 1011.40 1011.96 1012.52 1013.06 1013.57 1014.06 1014.51 1014.96 1015.39 1015.82 1016.25 1016.67 1017.09 1017.48 1017.83 1018.15 1018.42
1011.34 1011.01 1010.62 1010.18 1009.72 1009.25 1008.82 1008.46 1008.19 1008.03 1007.96 1007.99 1008.09 1008.22 1008.38 1008.52 1008.65 1008.74 1008.82 1008.89 1008.98 1009.10 1009.28 1009.53 1009.85 1010.23 1010.67 1011.15 1011.64 1012.14 1012.63 1013.09 1013.54 1013.98 1014.40 1014.83 1015.26 1015.69 1016.11 1016.53 1016.93 1017.29 1017.63 1017.93
1010.84 1010.45 1010.03 1009.61 1009.20 1008.83 1008.51 1008.28 1008.15 1008.11 1008.16 1008.29 1008.47 1008.68 1008.87 1009.05 1009.18 1009.27 1009.33 1009.37 1009.41 1009.48 1009.60 1009.77 1010.01 1010.31 1010.67 1011.06 1011.48 1011.91 1012.34 1012.76 1013.17 1013.57 1013.98 1014.38 1014.80 1015.22 1015.63 1016.05 1016.44 1016.82 1017.17 1017.49
1010.42 1009.97 1009.54 1009.14 1008.79 1008.50 1008.29 1008.17 1008.14 1008.21 1008.36 1008.57 1008.82 1009.07 1009.32 1009.52 1009.68 1009.78 1009.84 1009.87 1009.90 1009.94 1010.01 1010.13 1010.30 1010.53 1010.81 1011.13 1011.48 1011.85 1012.21 1012.58 1012.95 1013.32 1013.70 1014.08 1014.47 1014.86 1015.26 1015.66 1016.05 1016.42 1016.78 1017.12
1010.10 1009.62 1009.18 1008.81 1008.50 1008.28 1008.14 1008.09 1008.14 1008.27 1008.48 1008.74 1009.03 1009.33 1009.61 1009.85 1010.04 1010.18 1010.27 1010.32 1010.36 1010.40 1010.45 1010.54 1010.68 1010.86 1011.08 1011.34 1011.62 1011.93 1012.24 1012.56 1012.89 1013.22 1013.55 1013.90 1014.25 1014.61 1014.98 1015.36 1015.73 1016.09 1016.44 1016.79
1009.87 1009.38 1008.96 1008.61 1008.34 1008.15 1008.05 1008.03 1008.11 1008.26 1008.49 1008.76 1009.08 1009.40 1009.71 1009.99 1010.23 1010.42 1010.57 1010.67 1010.75 1010.82 1010.89 1010.97 1011.09 1011.23 1011.41 1011.62 1011.85 1012.10 1012.36 1012.63 1012.91 1013.20 1013.49 1013.79 1014.11 1014.43 1014.76 1015.09 1015.43 1015.77 1016.11 1016.46
1009.70 1009.24 1008.84 1008.52 1008.27 1008.09 1007.99 1007.97 1008.03 1008.17 1008.38 1008.65 1008.97 1009.30 1009.65 1009.98 1010.28 1010.54 1010.75 1010.93 1011.07 1011.18 1011.28 1011.38 1011.49 1011.61 1011.75 1011.91 1012.10 1012.30 1012.51 1012.74 1012.97 1013.21 1013.46 1013.72 1013.98 1014.26 1014.54 1014.84 1015.14 1015.45 1015.77 1016.09
1009.53 1009.13 1008.78 1008.49 1008.25 1008.07 1007.95 1007.90 1007.93 1008.03 1008.20 1008.45 1008.76 1009.11 1009.48 1009.86 1010.23 1010.57 1010.87 1011.13 1011.33 1011.50 1011.64 1011.75 1011.85 1011.96 1012.06 1012.19 1012.33 1012.48 1012.65 1012.83 1013.01 1013.21 1013.42 1013.63 1013.85 1014.08 1014.32 1014.58 1014.84 1015.12 1015.42 1015.72
1009.32 1009.00 1008.72 1008.46 1008.24 1008.06 1007.91 1007.82 1007.80 1007.86 1007.99 1008.22 1008.52 1008.89 1009.31 1009.75 1010.19 1010.61 1011.00 1011.33 1011.60 1011.81 1011.98 1012.10 1012.19 1012.27 1012.34 1012.42 1012.51 1012.62 1012.74 1012.88 1013.04 1013.20 1013.37 1013.55 1013.73 1013.93 1014.13 1014.35 1014.58 1014.84 1015.11 1015.41
1009.05 1008.83 1008.62 1008.41 1008.21 1008.02 1007.85 1007.73 1007.68 1007.70 1007.81 1008.03 1008.35 1008.75 1009.22 1009.72 1010.24 1010.74 1011.20 1011.59 1011.92 1012.16 1012.34 1012.45 1012.52 1012.57 1012.60 1012.63 1012.68 1012.75 1012.84 1012.95 1013.07 1013.22 1013.37 1013.52 1013.69 1013.86 1014.04 1014.23 1014.45 1014.68 1014.94 1015.23
1008.73 1008.61 1008.47 1008.31 1008.14 1007.95 1007.78 1007.65 1007.57 1007.59 1007.71 1007.94 1008.29 1008.74 1009.27 1009.84 1010.43 1011.00 1011.52 1011.97 1012.32 1012.58 1012.75 1012.85 1012.88 1012.88 1012.87 1012.86 1012.87 1012.91 1012.98 1013.08 1013.20 1013.34 1013.49 1013.64 1013.80 1013.97 1014.14 1014.32 1014.52 1014.75 1015.01 1015.30
1008.41 1008.37 1008.30 1008.18 1008.04 1007.87 1007.71 1007.59 1007.53 1007.56 1007.71 1007.99 1008.39 1008.91 1009.50 1010.15 1010.80 1011.43 1011.99 1012.47 1012.83 1013.09 1013.24 1013.31 1013.31 1013.27 1013.22 1013.18 1013.16 1013.19 1013.26 1013.36 1013.49 1013.65 1013.82 1014.00 1014.17 1014.35 1014.52 1014.71 1014.91 1015.14 1015.40 1015.69
1008.16 1008.18 1008.15 1008.08 1007.96 1007.82 1007.69 1007.59 1007.57 1007.65 1007.85 1008.18 1008.66 1009.24 1009.90 1010.61 1011.31 1011.98 1012.57 1013.06 1013.43 1013.67 1013.80 1013.84 1013.81 1013.74 1013.67 1013.62 1013.60 1013.64 1013.72 1013.86 1014.03 1014.22 1014.43 1014.64 1014.84 1015.04 1015.24 1015.43 1015.64 1015.87 1016.13 1016.42
1008.05 1008.10 1008.10 1008.06 1007.96 1007.85 1007.75 1007.70 1007.72 1007.86 1008.12 1008.52 1009.06 1009.70 1010.42 1011.17 1011.92 1012.61 1013.22 1013.70 1014.06 1014.29 1014.40 1014.42 1014.38 1014.31 1014.24 1014.20 1014.21 1014.28 1014.40 1014.58 1014.80 1015.05 1015.31 1015.56 1015.80 1016.03 1016.25 1016.46 1016.67 1016.90 1017.16 1017.45
1008.15 1008.21 1008.22 1008.18 1008.11 1008.02 1007.96 1007.94 1008.02 1008.21 1008.53 1008.99 1009.58 1010.26 1011.02 1011.80 1012.56 1013.26 1013.86 1014.34 1014.69 1014.91 1015.02 1015.05 1015.02 1014.96 1014.92 1014.92 1014.97 1015.09 1015.27 1015.51 1015.79 1016.09 1016.39 1016.69 1016.97 1017.23 1017.47 1017.69 1017.91 1018.14 1018.40 1018.68
1008.48 1008.53 1008.54 1008.50 1008.44 1008.38 1008.34 1008.37 1008.49 1008.72 1009.08 1009.58 1010.19 1010.90 1011.66 1012.44 1013.19 1013.87 1014.46 1014.93 1015.27 1015.50 1015.62 1015.67 1015.67 1015.67 1015.68 1015.73 1015.85 1016.02 1016.27 1016.56 1016.89 1017.24 1017.59 1017.92 1018.23 1018.51 1018.77 1019.00 1019.23 1019.46 1019.71 1019.98
1009.02 1009.06 1009.07 1009.04 1008.99 1008.95 1008.94 1008.99 1009.14 1009.40 1009.78 1010.28 1010.89 1011.58 1012.32 1013.07 1013.79 1014.44 1015.00 1015.46 1015.80 1016.03 1016.19 1016.27 1016.33 1016.38 1016.46 1016.58 1016.76 1017.00 1017.30 1017.64 1018.00 1018.38 1018.76 1019.11 1019.44 1019.73 1020.00 1020.24 1020.48 1020.71 1020.95 1021.21
1009.71 1009.76 1009.78 1009.76 1009.74 1009.72 1009.73 1009.81 1009.98 1010.24 1010.62 1011.10 1011.68 1012.32 1013.01 1013.70 1014.36 1014.97 1015.50 1015.93 1016.27 1016.53 1016.71 1016.85 1016.97 1017.09 1017.24 1017.42 1017.66 1017.95 1018.28 1018.65 1019.03 1019.42 1019.80 1020.16 1020.49 1020.78 1021.05 1021.30 1021.54 1021.78 1022.02 1022.28
1010.49 1010.56 1010.61 1010.63 1010.63 1010.64 1010.69 1010.79 1010.96 1011.22 1011.58 1012.02 1012.55 1013.13 1013.74 1014.35 1014.95 1015.49 1015.98 1016.39 1016.73 1017.00 1017.23 1017.42 1017.60 1017.78 1017.99 1018.23 1018.51 1018.83 1019.18 1019.55 1019.92 1020.30 1020.66 1021.00 1021.31 1021.60 1021.87 1022.12 1022.37 1022.62 1022.87 1023.14
1011.26 1011.39 1011.48 1011.55 1011.60 1011.66 1011.74 1011.86 1012.05 1012.30 1012.63 1013.03 1013.48 1013.99 1014.52 1015.05 1015.57 1016.06 1016.49 1016.88 1017.22 1017.51 1017.77 1018.00 1018.23 1018.47 1018.73 1019.00 1019.30 1019.63 1019.97 1020.32 1020.66 1021.00 1021.32 1021.63 1021.92 1022.19 1022.45 1022.71 1022.97 1023.24 1023.51 1023.79
Thickness
5706 5711 5710 5708 5707 5708 5704 5703 5696 5702 5708 5718 5726 5729 5732 5735 5736 5735 5734 5734 5734 5732 5732 5731 5729 5729 5729 5727 5726 5725 5722 5721 5721 5721 5721 5721 5719 5719 5719 5719 5719 5718 5717 5715
5699 5709 5709 5707 5711 5711 5710 5711 5709 5710 5712 5730 5735 5736 5733 5734 5734 5732 5733 5734 5735 5734 5733 5731 5730 5729 5729 5727 5725 5724 5721 5720 5720 5720 5719 5718 5717 5716 5716 5715 5715 5714 5713 5711
5687 5701 5702 5695 5712 5714 5715 5719 5715 5707 5717 5730 5730 5730 5730 5732 5732 5732 5733 5735 5735 5735 5734 5733 5732 5731 5730 5728 5725 5722 5720 5719 5718 5717 5716 5715 5715 5713 5712 5711 5711 5709 5708 5707
5685 5687 5675 5707 5732 5728 5721 5721 5725 5724 5727 5730 5730 5732 5734 5735 5733 5733 5735 5735 5736 5736 5736 5735 5734 5732 5731 5728 5724 5721 5719 5717 5717 5715 5713 5712 5711 5710 5709 5708 5706 5705 5704 5703
5680 5675 5686 5709 5725 5726 5718 5715 5729 5728 5729 5732 5733 5730 5728 5735 5736 5734 5736 5737 5737 5738 5737 5736 5735 5733 5730 5726 5723 5720 5718 5717 5716 5714 5711 5710 5708 5707 5707 5705 5704 5703 5701 5700
5677 5671 5674 5703 5727 5736 5723 5707 5731 5734 5731 5731 5729 5713 5717 5733 5735 5734 5735 5736 5736 5736 5736 5734 5734 5733 5728 5724 5721 5719 5718 5717 5716 5714 5711 5708 5707 5706 5705 5703 5702 5700 5698 5697
5674 5673 5688 5715 5727 5726 5698 5704 5732 5737 5735 5733 5727 5725 5730 5735 5733 5732 5733 5733 5733 5732 5731 5731 5732 5731 5726 5723 5720 5720 5719 5716 5714 5712 5710 5708 5706 5704 5703 5701 5699 5697 5695 5694
5678 5671 5681 5716 5718 5712 5714 5730 5735 5736 5736 5734 5731 5731 5731 5730 5728 5728 5728 5729 5729 5727 5726 5728 5729 5726 5723 5720 5721 5720 5717 5713 5711 5709 5708 5706 5703 5701 5699 5697 5694 5692 5691 5689
5688 5690 5709 5719 5720 5726 5729 5728 5731 5732 5733 5732 5728 5726 5725 5724 5724 5724 5724 5724 5725 5723 5722 5722 5724 5723 5719 5718 5718 5715 5712 5709 5707 5706 5705 5703 5699 5696 5694 5692 5690 5688 5686 5685
5690 5699 5709 5715 5720 5723 5726 5726 5729 5730 5730 5728 5724 5722 5721 5720 5719 5719 5720 5720 5720 5719 5717 5716 5718 5717 5716 5716 5715 5711 5707 5704 5703 5701 5699 5697 5695 5693 5690 5688 5686 5685 5683 5681
5684 5695 5703 5707 5713 5717 5720 5723 5724 5726 5725 5723 5721 5719 5718 5716 5715 5715 5715 5716 5716 5714 5712 5711 5713 5712 5712 5712 5710 5705 5702 5700 5698 5696 5694 5691 5689 5688 5687 5686 5685 5682 5680 5679
5679 5694 5695 5699 5709 5714 5714 5715 5717 5717 5717 5718 5717 5715 5714 5712 5712 5712 5711 5711 5710 5709 5707 5707 5707 5706 5707 5707 5706 5701 5696 5694 5693 5691 5689 5687 5684 5680 5680 5680 5680 5679 5677 5675
5690 5696 5699 5702 5706 5709 5710 5711 5713 5712 5711 5710 5711 5711 5709 5707 5707 5707 5706 5705 5704 5703 5702 5702 5701 5700 5700 5701 5700 5696 5692 5690 5688 5686 5684 5682 5679 5676 5672 5670 5671 5670 5669 5668
5689 5691 5691 5694 5697 5702 5704 5706 5708 5707 5706 5706 5705 5705 5704 5702 5701 5700 5699 5699 5699 5698 5696 5696 5694 5693 5694 5695 5693 5690 5688 5685 5683 5681 5679 5677 5675 5673 5670 5666 5662 5661 5660 5659
5681 5685 5686 5690 5692 5694 5696 5698 5697 5696 5696 5696 5697 5697 5696 5694 5693 5693 5694 5694 5693 5691 5689 5688 5687 5686 5688 5688 5686 5684 5681 5679 5677 5676 5674 5672 5670 5668 5665 5663 5659 5656 5653 5650
5672 5677 5679 5679 5681 5684 5686 5687 5687 5687 5688 5688 5688 5688 5688 5688 5687 5687 5687 5687 5684 5681 5681 5681 5680 5681 5682 5681 5678 5676 5674 5672 5671 5668 5667 5665 5662 5660 5658 5655 5653 5650 5647 5643
5661 5663 5667 5669 5673 5675 5677 5680 5681 5680 5680 5680 5681 5681 5681 5680 5679 5678 5678 5678 5677 5676 5675 5674 5673 5674 5674 5673 5671 5668 5666 5664 5663 5661 5659 5657 5655 5652 5650 5648 5645 5642 5639 5637
5660 5662 5665 5667 5667 5668 5670 5673 5674 5673 5673 5673 5674 5674 5672 5670 5669 5669 5669 5670 5669 5667 5667 5667 5667 5667 5666 5665 5663 5661 5659 5657 5654 5652 5650 5648 5646 5645 5642 5639 5636 5633 5630 5628
5652 5654 5657 5660 5662 5663 5664 5665 5665 5666 5667 5667 5666 5664 5664 5663 5661 5661 5661 5660 5658 5655 5656 5658 5658 5658 5657 5656 5655 5653 5651 5648 5645 5643 5641 5639 5636 5634 5632 5629 5626 5623 5621 5617
5643 5646 5649 5651 5654 5654 5655 5656 5658 5658 5658 5658 5657 5655 5654 5653 5652 5651 5650 5648 5646 5646 5648 5648 5648 5647 5647 5646 5645 5644 5641 5639 5636 5633 5631 5628 5626 5623 5621 5618 5615 5613 5610 5606
5633 5636 5638 5640 5642 5644 5646 5647 5647 5647 5648 5648 5647 5645 5644 5643 5642 5641 5638 5635 5635 5636 5637 5637 5637 5635 5635 5634 5633 5632 5630 5628 5625 5622 5620 5617 5614 5611 5609 5606 5603 5600 5597 5593
5624 5625 5627 5629 5631 5632 5635 5637 5637 5637 5636 5636 5636 5635 5633 5632 5631 5629 5627 5625 5625 5625 5625 5625 5624 5624 5623 5623 5621 5620 5618 5616 5613 5610 5607 5605 5602 5599 5596 5593 5590 5587 5583 5579
5614 5616 5618 5619 5620 5622 5624 5625 5625 5625 5624 5624 5624 5623 5622 5620 5620 5618 5614 5613 5614 5613 5613 5612 5611 5611 5611 5611 5609 5608 5605 5603 5600 5598 5595 5592 5589 5586 5583 5580 5576 5572 5568 5565
5604 5605 5607 5609 5610 5610 5610 5611 5611 5612 5612 5612 5611 5611 5610 5609 5607 5606 5605 5603 5603 5602 5600 5599 5599 5599 5599 5598 5596 5594 5592 5589 5587 5585 5582 5579 5576 5572 5569 5565 5561 5557 5554 5551
5591 5593 5595 5596 5597 5598 5599 5599 5599 5598 5599 5598 5598 5598 5598 5597 5596 5594 5593 5592 5591 5590 5588 5587 5587 5587 5586 5585 5583 5581 5578 5576 5573 5570 5567 5564 5561 5558 5554 5550 5546 5542 5539 5535
5577 5579 5582 5584 5586 5587 5587 5587 5587 5587 5587 5586 5585 5586 5586 5585 5584 5583 5581 5580 5579 5578 5576 5575 5575 5574 5573 5571 5569 5567 5564 5562 5559 5556 5553 5550 5547 5543 5539 5535 5532 5528 5523 5519
5565 5567 5568 5570 5572 5574 5575 5575 5575 5575 5576 5576 5574 5574 5573 5573 5572 5570 5569 5568 5567 5565 5564 5563 5562 5560 5559 5557 5554 5552 5549 5547 5544 5541 5538 5535 5531 5528 5524 5520 5516 5513 5508 5504